Regional Weather Roundup
Issued by NWS Mt. Holly, NJ

Home | Current Version | Previous Version | Text Only | Print | Product List | Glossary On
Versions: 1 2 3 4 5 6 7 8 9 10 11 12 13 14 15 16 17 18 19 20 21 22 23 24 25 26 27 28 29 30 31 32 33 34 35 36 37 38 39 40 41 42 43 44 45 46 47 48 49 50
000
ASUS41 KPHI 300811
RWRPHI

REGIONAL WEATHER ROUNDUP
NATIONAL WEATHER SERVICE MOUNT HOLLY NJ
400 AM EDT SUN AUG 30 2015

NOTE:  "FAIR" INDICATES FEW OR NO CLOUDS BELOW 12,000 FEET WITH NO
SIGNIFICANT WEATHER AND/OR OBSTRUCTIONS TO VISIBILITY.

 * = STATION DOES NOT REPORT PRECIPITATION (E.G. RAIN, SNOW, ETC.)
        OR FOG.

NJZ015>026-300900-
SOUTHERN NEW JERSEY

CITY           SKY/WX    TMP DP  RH WIND       PRES   REMARKS
POMONA         PTCLDY    68  63  84 CALM      30.11S
WILDWOOD*      MOCLDY    66  63  88 CALM      30.12F
MILLVILLE      CLEAR     63  61  93 CALM      30.12R
WRIGHTSTOWN    MOCLDY    64  62  94 SW2       30.09R
MOUNT HOLLY    PTCLDY    62  59  90 CALM      30.11R
TRENTON        PTCLDY    67  62  84 CALM      30.10R

$$
NJZ001>014-300900-
NORTHERN NEW JERSEY

CITY           SKY/WX    TMP DP  RH WIND       PRES   REMARKS
SUSSEX         PTCLDY    59  57  93 CALM      30.09F FOG
ANDOVER*         N/A     60  60 100 CALM      30.10F
MORRISTOWN     FOG       57  54  88 CALM      30.09S VSB 1/2
NEWARK         MOCLDY    69  60  73 SW6       30.08F
TETERBORO      CLEAR     69  59  70 CALM      30.07F
CALDWELL       CLEAR     67  60  78 CALM      30.09F
SOMERVILLE     CLEAR     61  58  90 CALM      30.08S FOG
ALLAIRE*       CLEAR     66  57  72 SW5       30.10S
TOMS RIVER*    CLEAR     61  57  88 CALM      30.11S

$$
PAZ043-044-047-054-055-060>062-066>071-300900-
EASTERN PENNSYLVANIA

CITY           SKY/WX    TMP DP  RH WIND       PRES   REMARKS
PHILADELPHIA   MOCLDY    71  61  70 S6        30.11S
NORTH PHILA    MOCLDY    72  60  66 CALM      30.12R
BLUE BELL      CLEAR     68  64  88 SW3       30.10S
DOYLESTOWN     PTCLDY    65  62  90 CALM      30.10S
QUAKERTOWN*    CLEAR     61  59  94 CALM      30.11S
POTTSTOWN      CLEAR     63  62  97 CALM      30.12S
LANCASTER      CLEAR     63  62  97 E3        30.10S FOG
COATESVILLE    CLEAR     64  64 100 CALM      30.12S FOG
READING        CLEAR     67  62  84 CALM      30.08S
ALLENTOWN      CLEAR     62  60  93 CALM      30.10R FOG
MOUNT POCONO   CLEAR     59  57  93 NW3       30.14S FOG
HAZLETON       FOG       61  61 100 CALM      30.15S VSB 1/2
WILKES BARRE   CLEAR     63  58  83 E6        30.09F

$$
DEZALL-MDZ008-012-015-019-020-300900-
DELAWARE AND EASTERN MARYLAND

CITY           SKY/WX    TMP DP  RH WIND       PRES   REMARKS
WILMINGTON     CLEAR     68  62  81 S6        30.11S
DOVER          CLEAR     67  65  93 S3        30.09S
GEORGETOWN     CLEAR     64  61  90 CALM      30.12S
PATUXENT       CLEAR     64  61  90 CALM      30.10S
OCEAN CITY     CLEAR     63  60  90 CALM      30.11S
WALLOPS ISLAND CLEAR     64  63  96 W3        30.11S
CAMBRIDGE      CLEAR     66  63  88 CALM      30.10S
SALISBURY      PTCLDY    63  61  93 CALM      30.11R

$$
PAZ001-021-NYZ056-072-MDZ011-DCZ001-300900-
OTHER NEARBY LOCATIONS

CITY           SKY/WX    TMP DP  RH WIND       PRES   REMARKS
HARRISBURG     PTCLDY    68  64  87 SE6       30.08S
STATE COLLEGE  MOCLDY    60  59  96 CALM      30.10S
WILLIAMSPORT   MOCLDY    61  58  90 CALM      30.08S
BINGHAMTON     CLOUDY    62  60  93 CALM      30.10S
NEW YORK CITY  CLEAR     74  60  61 W5        30.11F
BALTIMORE      PTCLDY    66  63  90 CALM      30.09F
WASHINGTON DC  MOCLDY    71  64  78 S9        30.10S

$$



USA.gov is the U.S. government's official web portal to all federal, state and local government web resources and services.